LAN1498 MPTO-SVMI

Flight info

Callsign LAN1498
Flight time N/A
Altitude 35000
Route EGETA3A EGETA DCT BOGAL DCT UGSOL DCT UGREB DCT MUDIN DCT UGOSA DCT BOBAT DCT BATEY DCT COR DCT UGOSI DCT MUNIN DCT PBL ALDAK1
Aircraft A320/M-SDE3FGHIRWY/LB1

Departure

Time 2026-05-04 14:21
Airport Tocumen International Airport (MPTO)

Arrival

Time N/A
Airport Maiquetía Simón Bolívar International Airport (SVMI)
Time Latitude Longitude Altitude Speed Heading
2026-05-04 14:06 9.06444 -79.38666 30 ft 0 kts 342°
2026-05-04 14:12 9.06432 -79.38662 31 ft 2 kts 335°
2026-05-04 14:13 9.06420 -79.38657 30 ft 2 kts 329°
2026-05-04 14:13 9.06409 -79.38651 30 ft 2 kts 323°
2026-05-04 14:13 9.06400 -79.38644 28 ft 1 kts 314°
2026-05-04 14:13 9.06391 -79.38636 30 ft 1 kts 299°
2026-05-04 14:14 9.06386 -79.38627 27 ft 1 kts 277°
2026-05-04 14:14 9.06388 -79.38610 31 ft 1 kts 245°
2026-05-04 14:14 9.06391 -79.38604 31 ft 1 kts 216°
2026-05-04 14:15 9.06399 -79.38597 29 ft 1 kts 207°
2026-05-04 14:15 9.06404 -79.38593 29 ft 0 kts 192°
2026-05-04 14:16 9.06392 -79.38601 30 ft 3 kts 209°
2026-05-04 14:16 9.06367 -79.38615 29 ft 5 kts 210°
2026-05-04 14:17 9.06274 -79.38621 30 ft 9 kts 179°
2026-05-04 14:17 9.06206 -79.38622 30 ft 11 kts 189°
2026-05-04 14:17 9.06036 -79.38712 30 ft 17 kts 208°
2026-05-04 14:18 9.05922 -79.38779 30 ft 20 kts 210°
2026-05-04 14:18 9.05665 -79.38928 30 ft 23 kts 210°
2026-05-04 14:19 9.05372 -79.39096 30 ft 26 kts 209°
2026-05-04 14:19 9.05214 -79.39187 30 ft 27 kts 209°
2026-05-04 14:19 9.05046 -79.39282 30 ft 28 kts 209°
2026-05-04 14:19 9.04943 -79.39342 30 ft 14 kts 210°
2026-05-04 14:20 9.04864 -79.39376 30 ft 11 kts 176°
2026-05-04 14:20 9.04811 -79.39329 31 ft 10 kts 127°
2026-05-04 14:20 9.04788 -79.39256 31 ft 11 kts 70°
2026-05-04 14:21 9.05036 -79.39105 32 ft 61 kts 29°
2026-05-04 14:21 9.05596 -79.38787 31 ft 123 kts 30°
2026-05-04 14:21 9.06488 -79.38279 71 ft 166 kts 30°
2026-05-04 14:21 9.07419 -79.37688 877 ft 154 kts 36°
2026-05-04 14:22 9.08283 -79.37049 1512 ft 159 kts 36°
2026-05-04 14:22 9.09224 -79.36336 1849 ft 179 kts 37°
2026-05-04 14:22 9.10252 -79.35542 2181 ft 196 kts 36°
2026-05-04 14:22 9.11405 -79.34668 2473 ft 222 kts 36°
2026-05-04 14:23 9.14088 -79.32620 3488 ft 259 kts 37°
2026-05-04 14:23 9.15515 -79.31519 4428 ft 258 kts 37°
2026-05-04 14:23 9.16967 -79.30425 5285 ft 262 kts 37°
2026-05-04 14:24 9.18437 -79.29322 6116 ft 265 kts 37°
2026-05-04 14:24 9.19934 -79.28199 6870 ft 270 kts 37°
2026-05-04 14:24 9.21452 -79.27057 7626 ft 274 kts 38°
2026-05-04 14:24 9.22991 -79.25898 8408 ft 278 kts 38°
2026-05-04 14:25 9.24552 -79.24719 9184 ft 282 kts 39°
2026-05-04 14:25 9.27727 -79.22302 10383 ft 300 kts 39°
2026-05-04 14:25 9.29480 -79.20962 10574 ft 324 kts 39°
2026-05-04 14:26 9.31321 -79.19556 10703 ft 346 kts 39°
2026-05-04 14:26 9.33307 -79.18043 10820 ft 367 kts 38°
2026-05-04 14:26 9.35401 -79.16455 11015 ft 384 kts 38°
2026-05-04 14:26 9.37556 -79.14825 11459 ft 390 kts 38°
2026-05-04 14:27 9.39749 -79.13166 11884 ft 395 kts 38°
2026-05-04 14:27 9.41947 -79.11502 12017 ft 395 kts 38°
2026-05-04 14:27 9.44035 -79.09699 12026 ft 393 kts 48°
2026-05-04 14:27 9.45691 -79.07514 12031 ft 391 kts 60°
2026-05-04 14:28 9.46837 -79.05012 12192 ft 394 kts 73°
2026-05-04 14:28 9.47417 -79.02306 12845 ft 394 kts 84°
2026-05-04 14:28 9.47609 -78.99544 13377 ft 397 kts 86°
2026-05-04 14:28 9.47781 -78.96743 13876 ft 400 kts 86°
2026-05-04 14:29 9.48124 -78.91077 14740 ft 406 kts 86°
2026-05-04 14:29 9.48477 -78.85321 15600 ft 412 kts 86°
2026-05-04 14:30 9.48654 -78.82415 16019 ft 415 kts 86°
2026-05-04 14:30 9.48829 -78.79486 16439 ft 418 kts 86°
2026-05-04 14:30 9.49183 -78.73573 17258 ft 423 kts 86°
2026-05-04 14:31 9.49361 -78.70582 17645 ft 426 kts 86°
2026-05-04 14:31 9.49719 -78.64553 18390 ft 432 kts 86°
2026-05-04 14:32 9.50084 -78.58479 19020 ft 438 kts 86°
2026-05-04 14:32 9.50271 -78.55390 19339 ft 440 kts 86°
2026-05-04 14:32 9.50456 -78.52288 19656 ft 443 kts 86°
2026-05-04 14:32 9.50639 -78.49166 19962 ft 445 kts 86°
2026-05-04 14:33 9.50821 -78.46028 20276 ft 447 kts 86°
2026-05-04 14:33 9.51009 -78.42870 20554 ft 450 kts 86°
2026-05-04 14:33 9.51199 -78.39698 20855 ft 452 kts 86°
2026-05-04 14:33 9.51388 -78.36520 21131 ft 455 kts 86°
2026-05-04 14:34 9.51579 -78.33292 21396 ft 458 kts 86°
2026-05-04 14:34 9.51767 -78.30061 21667 ft 461 kts 86°
2026-05-04 14:34 9.51952 -78.26813 21923 ft 464 kts 86°
2026-05-04 14:34 9.52140 -78.23533 22184 ft 466 kts 86°
2026-05-04 14:35 9.52329 -78.20241 22432 ft 469 kts 86°
2026-05-04 14:35 9.52521 -78.16942 22666 ft 471 kts 86°
2026-05-04 14:35 9.52719 -78.13616 22897 ft 474 kts 86°
2026-05-04 14:35 9.52919 -78.10273 23119 ft 476 kts 86°
2026-05-04 14:36 9.53116 -78.06926 23332 ft 479 kts 86°
2026-05-04 14:36 9.53314 -78.03556 23540 ft 481 kts 86°
2026-05-04 14:36 9.53510 -78.00158 23714 ft 483 kts 86°
2026-05-04 14:36 9.53704 -77.96756 23915 ft 484 kts 86°
2026-05-04 14:37 9.53895 -77.93393 24125 ft 485 kts 86°
2026-05-04 14:37 9.54089 -77.89979 24356 ft 485 kts 86°
2026-05-04 14:37 9.54290 -77.86518 24560 ft 487 kts 86°
2026-05-04 14:37 9.54487 -77.83134 24758 ft 488 kts 86°
2026-05-04 14:38 9.54683 -77.79699 24953 ft 489 kts 86°
2026-05-04 14:38 9.54878 -77.76260 25152 ft 490 kts 86°
2026-05-04 14:38 9.55074 -77.72809 25455 ft 488 kts 86°
2026-05-04 14:38 9.55269 -77.69385 25749 ft 487 kts 86°
2026-05-04 14:39 9.55466 -77.65954 26039 ft 487 kts 86°
2026-05-04 14:39 9.55662 -77.62537 26333 ft 486 kts 86°
2026-05-04 14:39 9.55856 -77.59121 26631 ft 485 kts 86°
2026-05-04 14:40 9.56233 -77.52313 27239 ft 484 kts 86°
2026-05-04 14:40 9.56425 -77.48904 27540 ft 483 kts 86°